2025-274G

Last updated on Wed Dec 31 2025 00:02:07 GMT+0000 (Coordinated Universal Time)

1 66656U 25274G 25364.24651742 .00004247 00000+0 41970-3 0 9990 2 66656 97.7403 291.1453 0013340 193.5707 166.5155 14.92388633 5011
UTC large
Height (km)
Speed (km/s)
/
Latitude / Longitude
Inclination (degrees)
Orbital Period (minutes)
Azimuth
Elevation
Range (km)
Doppler Factor

Next 0 passes for location: London (51.5072 / 0.1276)

Sorry there are no passes over London.